Weather in Tlyanub

Russia / Republic of Dagestan     42°26′08″N   46°27′25″E
temp.,
°C
wind,
m/s
gust,
m/s
humid.,
%
clouds,
%
prec.,
mm/h
press.,
hPa
HPBL,
m
14 april, wed
wed1400:00+3s228533 0.0 101630
03:00+3ssw22859 0.0 101521
06:00+3sw11786 0.0 101428
09:00+7ne2260100 0.4 1012566
12:00+6nw1169100 3.2 1012853
15:00+2nnw2294100 12.3 1016277
18:00+2nw3598100 0.6 1016273
21:00+1w239110 0.6 101884
15 april, thu
thu1500:00−1wsw22843 0.0 101834
03:00−1sw32692 0.0 101931
06:00−1sw33625 0.0 102049
09:00+5w12483 0.0 10161035
12:00+8ne234586 0.0 10141594
15:00+9nne234799 0.3 10141497
18:00+6nne226587 0.2 1016309
21:00+3s1180100 0.3 101810
16 april, fri
fri1600:00+3ssw116982 0.0 101819
03:00+2sw226774 0.0 101917
06:00+2ssw116445 0.0 101918
09:00+7e224916 0.0 10181009
12:00+8ene2256100 0.3 10171229
15:00+10ne124876 1.6 10151358
18:00+8e01595 1.3 101660
21:00+5sw22745 1.4 101945
17 april, sat
sat1700:00+4sw22775 0.0 102033
03:00+3ssw327914 0.0 102034
06:00+3ssw227591 0.0 101950
09:00+10se024561 0.0 1017962
12:00+12ne234394 0.0 10151368
15:00+9nne327093 0.2 1017582
18:00+6ne229294 0.2 1019319
21:00+6ne1192100 0.3 1020246
18 april, sun
sun1800:00+5ene1194100 0.1 1019254
03:00+5ene1195100 0.1 1019174
06:00+5ese1295100 0.0 1018170
09:00+8s137478 0.0 1016705
12:00+12ene1258100 0.1 1013962
15:00+12sw135988 0.2 10131113
18:00+9nne117866 0.8 1015302
21:00+7wsw228217 1.1 101631